Dewpoint
50 50 50 52 54 53 52 51 49 49 48 48 47 47 48 47 48 47 48 46 47 47 47 47 48 50 50 50 49 48 50 44 43 41 40 39 39 44 52 52 60 58 58 48 35 28 28 23 22 29 30 29 31 27 32 33 24 26 22 21 17 13 9 11 9 10 11 9 10 12 13 12 50 60 60 59 61 62 62 62 63 64 64 64 65 65 66 67
50 50 50 51 53 53 53 52 51 50 49 49 49 48 48 48 47 47 46 47 47 46 47 49 48 48 49 49 48 49 46 43 39 38 38 42 45 49 50 52 52 58 48 33 23 29 22 18 24 30 27 22 28 27 33 32 30 25 27 23 13 13 10 17 12 12 11 9 12 13 15 13 42 56 60 57 59 60 60 61 62 62 64 65 65 65 65 66
50 50 50 49 50 52 53 53 52 50 51 50 49 49 48 48 47 47 47 47 47 46 48 49 49 47 47 48 49 49 43 38 37 33 33 47 52 50 51 53 53 51 33 35 34 30 26 18 24 29 27 24 27 26 31 26 30 28 25 19 19 16 13 15 16 12 13 13 15 15 13 19 54 58 60 58 58 59 59 60 61 62 62 64 65 65 65 65
49 49 49 49 49 49 51 52 53 53 51 50 51 49 49 48 47 47 47 46 46 46 48 49 49 47 47 48 50 45 40 39 29 28 33 50 58 57 55 54 53 49 38 34 35 31 25 21 24 28 25 24 25 28 25 27 28 27 26 21 20 21 18 20 17 17 17 16 16 13 14 43 57 58 58 58 57 57 59 61 61 60 62 64 64 65 65 65
48 48 49 49 49 49 49 50 52 53 53 51 50 50 49 48 47 47 47 46 45 46 46 48 48 47 46 48 48 43 40 19 8 29 40 53 54 62 61 58 55 44 36 35 28 28 20 20 24 23 24 23 26 27 24 27 28 25 25 26 25 18 19 20 19 17 16 17 13 14 13 22 57 59 59 58 55 55 58 60 61 62 63 64 64 64 64 64
48 48 48 49 49 49 49 49 51 52 53 53 52 51 50 49 48 47 47 46 47 45 46 48 49 47 47 48 43 42 33 -1 15 32 50 52 52 58 61 62 56 45 36 29 23 24 24 17 22 21 21 23 25 22 25 27 24 19 23 24 25 24 23 23 18 15 14 14 14 14 13 33 56 59 59 59 59 58 59 62 62 62 63 64 65 65 64 65
47 47 48 48 48 48 48 49 49 52 52 53 52 51 50 49 48 47 47 47 47 46 48 48 49 49 48 47 43 41 35 32 34 30 50 51 49 58 63 62 57 42 33 28 22 24 25 17 19 19 21 21 23 24 26 26 23 22 19 22 22 21 22 21 20 17 17 15 15 13 27 19 54 57 59 59 62 62 63 63 63 63 64 64 64 65 64 64
47 47 47 48 47 47 47 48 49 49 51 52 52 52 52 50 49 48 47 47 46 47 46 48 49 49 47 42 37 36 36 34 34 35 46 48 34 47 58 55 47 37 28 21 18 21 21 17 16 21 19 13 19 24 25 24 22 23 23 24 24 21 20 20 19 17 16 15 13 42 31 27 51 56 60 61 62 63 63 63 63 64 64 65 64 64 64 65
46 46 47 47 47 47 47 47 49 49 50 51 52 52 52 52 50 48 47 47 47 48 48 48 49 48 48 42 39 33 28 34 36 37 34 32 30 31 51 47 41 33 25 22 14 17 21 19 18 19 11 16 22 22 23 23 22 22 24 21 20 20 19 17 17 15 14 13 31 58 58 59 60 60 59 61 62 63 63 63 64 64 64 64 64 64 64 65
46 45 46 46 46 47 47 47 48 49 50 51 51 52 52 51 50 50 47 47 48 47 48 48 49 49 43 39 37 28 28 31 39 37 35 33 32 29 43 46 41 31 24 24 11 10 19 17 18 21 21 20 23 21 21 22 19 21 23 23 22 22 19 15 13 14 14 14 51 57 58 58 56 56 56 63 64 63 63 63 64 64 63 64 64 64 65 64
45 45 45 45 46 46 47 47 47 48 50 51 51 52 52 51 51 50 49 48 47 47 47 48 48 47 41 39 34 26 30 38 40 37 36 34 32 26 28 45 41 30 23 23 14 9 13 15 21 22 20 17 22 18 20 20 17 17 19 13 13 13 10 11 11 12 12 9 45 57 57 45 54 57 57 62 64 64 62 63 63 63 64 64 64 64 64 64
46 45 45 45 46 46 46 47 47 48 49 50 51 51 52 51 51 51 49 47 47 47 47 48 49 45 42 41 36 34 35 37 38 37 36 35 32 28 24 40 37 29 22 20 19 11 9 15 21 21 15 20 19 13 14 17 9 9 11 8 10 9 10 10 7 8 13 12 57 55 52 49 50 56 61 62 63 63 63 62 60 59 60 60 62 64 64 64
46 46 45 45 46 46 46 47 47 47 47 49 50 51 52 51 51 50 49 48 47 47 47 47 47 43 40 35 36 38 39 39 38 37 36 35 32 30 28 30 36 26 22 20 19 13 14 16 19 21 13 16 14 13 12 10 8 9 7 6 8 10 9 10 9 9 11 23 56 50 36 47 48 59 60 61 62 63 61 57 58 57 58 58 59 60 62 64
47 46 46 47 46 46 46 46 47 47 47 47 49 50 51 51 51 50 49 48 47 47 46 47 47 44 41 36 35 38 38 39 38 39 38 35 29 23 18 25 31 27 25 22 19 19 13 15 15 14 13 11 12 12 10 8 11 11 9 8 11 9 9 8 10 9 9 33 49 30 32 42 53 58 59 60 61 59 56 56 56 58 60 60 59 59 59 61
46 46 46 46 46 46 46 46 46 46 47 47 48 49 50 50 51 50 50 48 48 47 45 48 45 41 37 34 36 36 45 42 41 40 40 35 25 19 17 25 28 29 26 23 22 23 16 17 18 14 13 11 12 12 10 7 12 12 10 11 7 9 8 8 14 9 5 36 32 26 26 40 49 57 59 59 59 56 55 54 56 58 58 58 59 59 60 60
46 46 46 45 46 46 46 45 46 46 46 47 49 49 50 50 50 50 50 49 48 47 45 43 42 40 35 30 29 37 29 28 23 27 32 37 28 17 21 20 28 25 25 22 19 19 17 19 19 15 7 11 11 12 9 7 11 10 11 18 9 8 7 5 9 10 12 37 34 24 15 45 50 58 58 57 57 56 54 55 57 58 59 59 59 59 59 62
46 46 46 45 45 45 45 45 45 46 46 46 48 49 49 49 50 49 49 48 47 47 43 36 41 40 27 30 34 27 23 25 27 27 26 32 29 19 23 26 26 22 19 17 17 18 17 19 15 11 10 11 9 11 12 13 13 11 13 13 14 7 7 5 8 9 27 38 38 44 44 52 56 58 57 57 56 55 53 55 57 57 59 60 60 60 61 61
45 45 46 46 45 45 45 45 45 44 45 46 47 47 48 49 49 48 47 48 47 45 45 44 42 38 33 35 26 23 28 28 28 27 27 27 29 21 16 21 26 22 20 15 14 13 16 15 10 12 9 10 12 13 15 11 14 15 14 14 9 10 12 5 6 22 31 39 35 46 52 51 52 52 54 56 57 53 52 54 56 57 58 60 60 60 61 61
46 45 45 45 45 44 44 44 44 44 44 47 48 48 49 49 48 47 45 44 40 34 27 33 34 16 8 20 24 30 30 29 29 29 26 26 26 21 24 27 23 22 21 18 17 14 14 12 15 11 8 9 10 13 14 11 9 9 11 11 12 9 8 5 12 30 40 41 43 44 48 51 51 51 53 55 56 53 52 55 55 56 56 57 59 60 60 61
45 45 45 45 44 44 44 44 44 44 45 46 47 47 45 40 41 39 43 41 37 33 26 28 34 27 28 23 27 30 30 29 24 26 27 24 22 18 18 24 25 25 19 17 16 13 14 9 8 8 6 6 10 12 14 11 9 10 11 10 8 7 6 8 27 44 43 45 47 50 50 50 50 50 52 54 55 55 55 56 56 56 56 57 59 60 60 61
46 45 45 45 44 44 44 44 44 44 44 47 46 41 35 36 32 29 37 38 38 36 33 32 34 32 26 26 27 30 29 27 30 28 26 26 20 16 16 19 25 25 21 19 14 22 13 12 9 6 6 6 8 16 22 11 11 9 8 7 7 7 9 35 43 47 47 47 47 51 49 50 50 50 52 53 54 54 55 56 57 57 57 59 59 60 61 61
46 46 45 44 44 44 44 44 44 44 45 47 45 39 39 38 40 42 37 29 35 37 36 33 33 32 33 31 32 32 32 29 25 26 26 25 20 16 17 15 22 22 23 19 19 15 11 9 12 7 8 8 12 18 14 13 11 10 8 11 7 7 9 23 48 47 47 46 47 49 48 48 51 51 52 52 53 54 55 55 54 54 55 56 56 57 58 59
47 47 47 44 44 43 44 44 46 46 46 44 41 40 40 42 44 45 40 34 32 35 36 35 34 33 33 34 34 34 30 27 24 25 24 25 20 18 16 14 20 22 22 19 17 18 12 8 12 12 10 9 10 12 10 13 17 13 10 10 7 8 6 14 46 47 47 47 46 48 47 49 51 52 52 52 52 54 55 54 54 54 54 55 53 56 56 57
47 46 45 45 44 44 45 45 46 45 44 42 41 41 45 45 45 44 38 30 26 27 33 33 34 32 31 29 32 32 29 27 27 23 26 25 18 19 16 15 18 22 20 20 19 13 13 11 17 11 8 8 10 12 12 14 12 18 11 7 7 7 12 23 43 47 47 47 47 47 47 49 51 50 51 52 53 54 54 53 54 56 57 57 57 57 55 54
46 46 46 45 44 44 44 45 43 42 42 44 42 43 45 44 45 45 35 28 29 30 32 30 33 32 30 31 34 30 30 27 26 25 23 22 18 17 17 16 19 22 21 22 19 14 17 18 14 9 8 8 10 10 11 13 13 12 16 7 7 22 44 46 47 43 44 42 44 40 38 42 49 50 50 52 52 53 53 53 53 54 55 55 55 56 56 57
45 46 46 46 44 44 45 41 40 42 42 40 41 46 45 43 43 43 36 25 20 21 29 24 31 24 31 30 30 28 28 23 26 26 26 22 25 19 14 14 16 18 22 22 19 21 18 20 11 9 8 9 9 8 11 11 13 14 11 10 19 36 45 45 41 28 31 30 41 46 28 38 47 48 49 51 51 51 53 53 53 54 54 54 54 55 55 56
45 45 45 45 45 44 40 36 44 42 38 38 43 45 44 45 45 44 31 17 14 23 22 23 22 21 26 29 28 27 10 10 24 26 26 29 21 20 17 13 13 12 21 24 23 18 20 17 13 12 10 8 9 8 11 10 10 10 10 13 39 41 42 42 34 27 36 44 46 44 40 40 38 45 50 51 50 50 51 52 52 53 53 54 55 55 55 55
45 45 46 45 45 43 41 43 41 39 39 40 41 43 43 43 45 44 29 10 5 23 21 26 22 29 28 30 27 15 16 18 12 20 24 25 24 16 17 12 16 15 15 21 16 19 23 18 15 13 13 8 5 9 12 10 8 9 13 24 33 22 39 38 29 32 40 40 38 40 42 37 37 45 50 50 47 49 50 51 52 53 53 54 54 55 55 55
45 45 44 44 45 44 46 43 42 39 44 44 42 42 43 42 44 32 19 11 18 14 26 22 27 26 29 29 23 17 18 18 15 17 22 21 21 17 15 13 11 14 12 20 18 19 18 19 16 14 12 9 13 13 12 9 7 9 12 14 20 29 35 34 27 29 33 24 27 39 41 31 37 45 46 49 47 47 49 50 51 52 53 53 54 55 55 55
44 44 43 43 45 45 45 45 41 41 44 46 45 44 46 43 36 22 15 10 16 15 17 21 23 22 28 25 21 19 17 17 18 19 19 18 19 18 11 11 8 10 13 16 16 17 18 26 21 16 13 14 14 13 11 9 10 11 10 9 12 16 23 28 33 30 22 15 21 36 40 34 35 41 46 46 47 48 49 50 51 52 52 53 53 54 54 54
44 44 43 44 44 43 43 41 43 43 44 45 45 44 40 37 26 16 12 15 22 21 21 22 23 27 26 23 19 20 17 17 16 17 16 18 17 13 8 8 8 10 16 16 16 13 19 20 17 17 22 15 13 11 11 10 11 10 9 10 9 14 17 19 21 23 12 10 24 36 39 34 25 40 44 47 48 49 49 49 50 51 51 52 52 53 53 54
45 45 45 45 44 46 41 39 43 44 45 46 45 40 36 23 23 17 13 25 19 23 21 21 26 25 25 23 17 17 14 15 17 16 17 16 18 11 12 14 12 11 12 16 15 11 17 17 18 19 23 14 13 11 9 9 11 8 10 10 9 11 11 9 14 12 10 10 23 30 38 30 25 41 42 44 47 48 50 50 50 51 51 51 52 52 53 53
46 45 46 46 45 45 43 43 42 40 43 45 41 39 28 18 13 16 18 22 26 31 28 28 25 24 24 20 16 16 17 13 16 17 18 17 14 11 11 10 11 17 12 19 15 12 11 12 12 17 18 17 13 9 10 8 9 8 8 12 9 7 7 8 9 17 16 16 21 32 37 32 35 36 46 46 47 48 50 51 51 51 51 51 51 52 52 52
46 46 46 46 46 45 43 43 45 47 42 41 37 31 26 16 14 29 25 30 29 32 29 28 26 24 23 16 16 15 12 14 15 16 17 16 14 16 12 8 14 10 16 21 12 12 12 10 11 17 15 17 13 10 10 11 9 7 9 7 10 11 6 8 6 8 10 18 28 32 32 29 28 38 46 47 49 49 50 51 51 51 51 51 51 51 51 52
44 44 43 44 45 47 46 43 46 46 44 39 34 26 19 17 21 24 26 28 32 31 28 29 25 23 22 19 15 15 14 14 15 16 17 15 16 15 15 10 10 14 11 14 18 19 10 11 10 17 17 15 13 14 12 9 8 8 8 7 11 10 21 5 15 14 24 25 27 35 33 40 40 47 47 50 49 50 51 51 51 50 50 51 50 51 51 51
41 40 42 41 43 45 44 46 45 45 42 37 28 23 20 23 21 30 28 34 33 29 29 25 24 23 21 18 14 11 15 14 15 17 16 16 16 16 11 7 9 13 13 16 21 11 8 12 16 13 14 15 14 14 12 9 10 11 6 8 9 20 22 23 23 27 25 20 19 34 38 41 44 48 49 51 50 50 51 50 50 50 50 50 50 50 50 50
40 41 40 41 41 42 44 45 45 43 41 34 26 21 25 28 33 31 34 31 31 32 29 19 22 21 20 15 14 12 12 16 15 15 16 16 17 16 11 7 7 11 13 19 17 20 12 9 16 12 11 15 16 13 12 11 16 8 8 9 19 19 20 19 12 18 16 10 22 35 34 37 37 35 49 49 49 50 49 49 50 50 49 49 49 50 50 50
39 39 42 40 42 45 46 47 45 43 39 32 26 26 32 28 35 33 35 34 31 30 29 29 31 16 19 13 12 10 12 13 14 14 15 15 16 15 10 6 6 10 13 16 14 18 17 7 12 13 12 15 15 14 11 12 12 7 7 14 6 11 10 22 19 13 15 13 22 32 34 36 35 41 46 46 47 48 49 49 49 48 49 49 49 49 49 50
39 40 36 38 44 47 47 47 44 39 36 29 26 25 31 32 36 34 35 34 33 31 29 32 29 29 16 12 13 11 11 13 13 14 13 15 12 15 13 7 6 8 14 10 12 24 24 10 13 17 13 13 14 13 14 12 10 13 13 9 15 16 18 14 14 21 17 13 24 30 32 31 38 42 46 48 48 49 49 48 48 49 49 49 49 49 49 49
39 37 34 39 45 45 45 45 41 38 32 25 27 28 35 30 33 36 36 34 31 29 31 31 30 29 23 19 11 12 10 12 12 14 13 16 11 13 12 8 5 5 12 13 11 25 19 29 7 15 16 12 13 15 14 13 11 11 11 12 12 21 16 15 23 12 12 20 20 24 28 32 37 40 45 48 48 49 50 49 49 49 49 49 49 49 49 49
39 36 36 42 44 44 44 41 36 31 29 31 33 30 31 29 33 35 34 34 33 32 30 30 29 29 30 18 13 13 12 11 11 12 10 13 13 14 13 9 5 7 11 10 15 23 21 20 17 21 14 12 13 13 15 13 11 11 13 13 10 14 11 7 11 21 25 16 20 19 15 31 39 44 46 47 49 50 49 49 49 49 48 48 49 49 48 49
37 29 31 42 45 43 41 32 32 35 31 27 27 30 30 35 35 35 35 35 34 32 32 31 31 30 31 31 23 15 11 9 11 11 12 14 18 15 12 9 6 7 9 15 13 25 28 29 23 17 15 14 14 13 17 14 12 11 11 12 11 21 17 8 7 17 24 28 27 26 19 23 41 45 46 47 49 49 49 49 48 48 48 48 49 49 49 49
36 32 42 44 45 41 38 32 33 33 30 32 33 34 35 35 35 34 34 35 34 33 32 30 31 32 32 31 30 13 12 14 10 10 11 14 18 15 12 7 7 5 6 17 12 18 36 22 16 13 15 16 16 16 18 13 12 9 10 11 11 15 13 11 14 26 13 28 23 21 16 24 43 48 48 48 49 50 49 48 47 48 48 48 48 48 48 48
38 37 40 44 44 42 37 28 28 30 32 35 35 34 36 36 35 34 35 35 33 33 33 32 29 32 31 31 32 15 17 16 11 11 12 14 13 16 11 8 6 7 7 18 14 35 19 19 15 13 12 13 15 14 13 11 11 14 14 19 11 14 16 28 27 30 15 27 19 15 9 27 44 47 48 48 48 48 47 47 47 47 47 48 48 48 48 47
38 40 41 42 44 43 33 35 32 30 31 31 31 31 33 35 36 36 34 33 35 34 34 34 30 31 28 31 32 32 30 13 18 12 16 12 18 26 11 9 6 11 7 19 25 25 18 26 18 11 11 11 12 12 13 14 12 20 23 14 13 10 26 23 12 18 11 26 24 14 17 36 45 46 46 47 47 47 46 46 47 47 47 47 48 48 48 47
36 27 35 38 41 40 38 39 36 33 31 31 30 32 34 33 36 38 36 35 37 35 34 33 32 31 29 32 33 30 28 30 16 20 12 13 20 29 16 10 9 8 25 34 33 27 23 30 23 25 16 14 17 20 22 22 15 12 18 14 16 13 18 21 27 18 12 26 25 28 34 40 41 44 45 46 47 46 46 46 46 46 47 47 47 47 46 45
38 30 30 31 37 37 34 37 35 35 32 35 30 32 31 33 35 36 36 34 35 37 36 35 34 35 35 34 35 33 33 25 18 15 18 29 33 33 34 11 10 14 39 35 31 26 29 17 21 30 29 26 23 20 26 22 14 15 18 19 16 18 26 26 20 16 32 23 15 35 40 41 41 44 46 46 46 46 46 46 46 46 46 46 47 46 46 44
33 34 36 36 33 29 31 32 35 34 35 35 32 34 33 33 34 33 35 38 37 37 34 33 35 34 34 35 34 31 32 32 22 21 32 32 32 31 24 25 10 29 34 29 27 31 23 15 25 22 19 36 37 36 34 29 21 19 17 22 24 23 26 24 27 30 30 16 10 35 40 41 42 44 45 46 46 46 46 46 46 46 46 46 46 45 44 43
40 39 39 42 35 36 34 35 36 35 34 35 33 35 33 33 33 33 36 35 35 34 34 31 34 34 34 36 36 36 35 23 23 34 31 34 36 35 29 28 28 31 33 31 25 36 27 15 32 20 22 34 36 35 37 32 31 29 24 23 25 24 25 25 26 32 30 25 34 37 42 40 41 44 45 46 46 46 46 46 46 45 45 45 45 44 43 43
36 35 34 39 40 38 37 37 36 37 35 37 32 32 34 34 34 35 36 36 33 34 35 35 35 35 35 35 36 37 37 38 35 27 35 38 34 38 35 36 31 30 26 28 23 30 23 15 32 23 21 32 36 35 34 32 33 29 30 31 27 25 26 26 35 36 36 37 38 42 41 40 41 45 46 47 47 46 46 45 45 45 45 45 44 43 42 42
41 43 41 36 32 35 38 37 36 35 34 34 33 34 36 35 35 37 36 37 35 35 35 35 35 36 35 37 38 38 38 38 39 40 40 37 29 37 36 35 33 30 30 29 28 31 25 24 34 28 17 24 35 36 34 35 33 31 33 35 31 27 24 32 26 36 29 38 40 41 40 39 42 44 46 46 45 45 45 45 45 45 44 44 44 43 41 41
44 45 44 38 31 35 34 37 36 36 32 35 35 36 36 36 37 38 33 33 35 36 37 37 37 35 36 38 36 38 38 39 39 39 41 40 41 41 39 38 32 28 28 27 35 25 27 33 28 23 13 23 36 36 33 32 27 23 27 35 37 39 37 38 37 38 40 41 38 33 32 39 43 45 45 45 45 45 45 45 44 44 44 44 43 42 41 41